Location: Home
(42.5358°N, 72.7383°W)
Time: 00:11:38
(UTC-05:00)

Vanguard 1 - Pass Details

Date: 30 November 2021
Orbit: 652 x 3830 km, 34.2° (Epoch: 21 January)

Event Time Altitude Azimuth Distance (km) Brightness Sun altitude
Rises 22:47:52 0° 214° (SW) 7,113 14.4 -66.6°
Enters shadow 22:48:25 - 213° (SSW) 7,028 14.3 -66.7°
Reaches altitude 10° 22:52:42 10° 208° (SSW) 6,403 - -67.1°
Maximum altitude 23:12:28 42° 146° (SE) 4,771 - -68.5°
Exits shadow 23:30:16 13° 87° (E) 6,072 14.0 -69.2°
Drops below altitude 10° 23:31:33 10° 85° (E) 6,251 14.1 -69.2°
Sets 23:36:06 0° 79° (E) 6,945 14.4 -69.3°
